Wetbulb
48.92 49.30 48.60 48.45 48.44 48.66 49.21 49.12 48.95 48.94 48.92 48.91 49.08 49.37 49.56 50.05 50.56 50.65 50.75 51.17 51.68 51.93 52.27 52.37 51.72 50.56 49.55 43.63 42.68 50.19 49.60 49.13 51.87 51.38 49.13 47.20 44.58 42.77 40.86 43.21 44.22 42.12 44.07 45.70 48.32 49.13 49.91
48.16 48.38 48.10 48.36 48.42 48.51 48.80 48.95 48.90 48.83 48.81 48.81 48.96 49.13 49.39 49.67 50.24 50.61 50.79 51.13 51.16 51.68 52.16 52.27 51.72 51.12 46.96 39.52 49.05 49.60 48.41 48.75 48.92 47.92 47.39 48.56 45.07 46.16 42.51 41.95 42.38 44.49 43.95 44.71 46.66 48.97 49.42
48.16 48.36 48.22 47.99 48.19 48.38 48.58 48.46 48.61 48.67 48.74 48.85 48.80 49.02 49.26 49.60 50.05 50.44 50.57 50.86 50.99 51.53 52.29 52.56 52.38 50.61 45.42 43.77 49.53 51.11 50.63 50.23 50.63 49.76 46.53 48.65 49.43 45.65 44.96 41.51 43.93 43.96 41.01 43.11 45.10 47.27 48.40
47.77 47.91 48.13 47.95 47.96 47.76 47.98 48.11 48.31 48.50 48.50 48.57 48.72 48.94 49.07 49.27 49.79 50.22 50.59 50.68 51.03 51.18 51.97 51.26 52.23 49.31 43.31 51.00 53.28 51.40 52.14 51.15 51.02 51.04 49.63 49.73 50.87 47.89 44.81 45.51 42.73 40.22 41.51 37.83 43.17 45.20 47.53
47.43 47.61 47.82 47.79 47.72 47.69 47.85 47.98 47.84 48.06 48.02 48.31 48.46 48.68 49.05 49.77 50.51 50.85 51.07 51.34 50.40 51.05 50.99 51.91 49.61 46.47 43.14 51.32 48.50 50.81 52.04 48.49 48.81 48.41 48.76 48.33 46.75 45.02 44.17 40.20 38.34 39.36 35.32 36.90 40.06 44.46 44.39
47.49 47.29 47.49 47.80 47.47 47.60 47.67 47.63 47.74 47.61 47.92 48.01 48.38 48.81 49.05 49.39 50.47 50.66 50.53 50.04 48.60 51.00 51.21 50.92 48.40 41.63 46.71 44.59 47.86 49.07 51.36 50.12 46.71 45.77 43.11 43.67 42.54 40.71 40.46 38.56 33.02 36.01 35.63 38.32 37.84 42.20 42.85
46.87 47.19 47.59 47.25 47.38 47.43 47.54 47.71 47.45 47.55 47.66 47.97 48.31 48.54 48.89 49.44 50.07 50.31 49.83 50.15 45.61 43.86 44.82 40.02 40.80 40.95 41.96 46.58 49.22 47.28 48.31 46.49 46.18 43.91 38.69 41.30 37.51 34.86 37.96 40.10 40.52 40.20 38.73 37.72 39.57 42.66 41.12
46.87 46.79 46.98 46.87 47.12 47.25 47.36 47.50 47.33 47.51 47.71 47.86 48.10 48.37 48.85 49.58 49.74 49.57 49.68 44.32 42.93 43.87 36.37 43.95 43.52 42.75 44.74 46.05 41.23 45.58 47.39 41.57 40.97 37.43 40.41 37.59 34.31 38.82 40.00 40.26 39.52 39.21 37.78 37.81 39.94 41.61 41.09
46.23 46.39 46.50 46.73 46.94 46.88 47.11 47.33 47.29 47.42 47.66 47.74 48.03 48.30 49.02 49.47 49.46 47.60 46.56 44.27 47.93 46.62 38.43 40.18 42.52 42.48 43.92 44.31 40.55 42.50 45.22 42.93 39.53 37.73 38.42 36.32 38.38 40.10 38.48 37.82 37.22 38.06 37.13 37.83 37.45 40.15 41.33
46.08 46.20 45.93 46.36 46.62 46.72 46.95 47.16 47.13 47.31 47.55 47.81 47.89 48.45 49.05 49.03 45.74 46.75 45.51 47.05 47.76 47.76 34.64 35.40 39.16 41.64 42.86 42.80 39.52 46.15 46.69 43.66 41.60 37.49 39.22 38.74 41.74 38.49 37.28 36.39 38.26 35.12 39.75 39.29 39.18 37.69 34.04
45.86 45.81 45.65 46.12 46.30 46.40 46.58 46.50 46.97 47.37 47.55 47.75 47.89 48.73 48.82 47.18 46.21 44.02 44.99 47.39 49.27 47.02 21.93 35.84 37.59 45.03 42.49 39.03 41.01 41.85 48.07 44.79 38.64 38.95 38.74 36.50 37.68 37.00 36.58 37.20 38.96 37.00 40.59 38.77 39.18 39.67 38.69
45.60 45.27 45.61 45.69 45.92 46.06 46.33 46.47 46.88 46.99 47.20 47.57 48.02 48.21 47.74 46.04 47.23 44.80 45.90 48.01 48.06 32.67 21.19 31.49 36.21 34.28 35.28 38.23 38.71 41.27 41.88 46.73 45.26 39.48 40.00 38.76 42.34 40.13 40.31 41.16 41.02 41.55 38.99 38.02 39.28 38.41 32.79
45.34 45.00 45.40 45.63 45.86 46.15 46.37 46.78 46.94 46.84 47.21 47.32 47.40 45.90 45.47 45.80 40.12 45.33 46.87 46.61 31.26 23.96 32.65 27.52 28.68 32.79 32.98 33.55 34.46 36.04 35.70 36.55 34.18 30.70 32.91 36.95 37.57 40.91 41.52 38.49 41.20 40.22 37.08 30.01 28.51 29.42 30.25
45.10 44.87 45.17 45.44 45.82 46.05 46.45 46.75 47.37 47.09 46.92 46.81 45.93 42.96 45.56 45.16 46.06 45.25 46.19 36.60 22.09 25.18 25.93 31.13 30.38 31.55 29.76 32.05 31.97 32.83 33.00 31.87 33.83 31.77 33.93 30.21 28.54 36.83 40.62 39.32 37.29 37.33 37.37 31.64 24.83 27.88 32.21
44.77 44.76 45.04 45.19 45.66 46.09 46.15 46.54 47.41 47.56 46.77 45.24 43.97 46.43 43.58 45.77 46.21 45.56 40.36 26.87 21.32 24.32 27.81 26.83 28.56 25.59 26.43 29.24 29.15 30.97 30.74 29.55 31.31 30.78 26.30 30.25 31.46 39.63 39.99 41.57 41.13 37.57 34.99 40.69 35.20 36.67 33.97
44.60 44.45 44.72 44.93 45.44 45.89 46.08 46.70 47.24 47.03 45.35 43.74 46.79 42.91 40.22 45.52 47.34 43.74 33.80 23.82 26.47 29.59 29.73 28.86 22.30 25.31 20.94 24.29 25.63 27.29 27.54 30.62 27.63 31.21 32.05 30.55 29.35 37.84 39.29 42.03 41.91 40.19 41.57 35.50 37.04 28.56 27.51
44.23 44.15 44.40 44.83 45.17 45.62 46.33 47.07 46.88 46.14 44.39 42.04 42.66 36.67 41.95 45.40 45.08 35.02 24.75 24.37 26.66 31.19 30.95 26.31 24.15 23.29 23.74 22.45 25.07 24.96 25.98 30.23 30.11 29.05 30.32 31.65 30.76 34.90 38.55 37.33 36.62 38.09 36.82 38.74 39.35 37.24 31.66
43.87 43.82 44.09 44.48 44.94 45.23 46.11 46.58 46.39 46.02 43.39 43.76 39.53 30.01 41.51 44.92 31.57 31.75 26.25 27.01 29.62 29.22 31.66 29.11 28.63 26.80 24.44 24.79 23.87 23.71 24.40 27.88 31.40 30.14 25.40 32.76 28.49 28.93 34.44 40.55 42.50 41.08 39.08 39.52 35.52 33.60 37.63
43.77 43.50 43.70 44.06 44.51 44.82 46.08 45.68 45.62 45.36 41.96 42.46 34.70 34.40 41.54 41.02 25.88 27.01 29.85 28.61 29.17 28.45 28.39 27.57 25.71 27.77 28.66 25.02 20.93 25.15 26.69 31.99 31.16 29.17 27.27 29.62 27.91 27.76 31.51 37.17 40.24 38.69 40.15 40.74 41.14 40.18 35.47
43.69 43.24 43.32 43.82 44.04 44.57 45.16 45.18 45.20 44.10 42.40 42.70 36.91 30.72 34.72 36.04 34.44 29.20 26.87 26.20 25.91 31.14 28.72 29.43 27.61 28.95 26.87 24.94 27.11 23.40 25.59 29.44 30.94 31.88 31.65 30.69 28.17 28.31 26.68 32.88 37.75 35.87 38.35 39.93 39.69 35.30 36.46
43.35 43.24 42.97 43.27 43.60 44.03 44.57 44.33 44.43 43.27 42.44 42.28 36.15 30.01 31.37 26.71 28.65 30.06 29.81 27.85 25.24 24.53 29.34 30.49 27.08 26.40 24.60 20.84 23.46 23.61 26.87 28.15 29.67 30.80 29.52 27.77 22.72 27.97 29.95 35.44 37.61 37.98 37.54 38.62 37.71 38.75 36.01
43.15 43.09 42.84 42.87 43.17 43.49 44.18 44.25 42.97 43.22 41.88 38.10 32.79 33.38 35.18 30.93 31.38 29.77 28.16 26.49 25.31 26.79 27.15 25.72 24.75 26.69 26.12 22.80 24.41 22.72 26.12 26.67 24.54 28.84 26.11 28.00 23.90 26.53 27.41 37.80 38.65 35.93 38.71 38.93 39.00 39.41 39.86
43.00 43.02 42.74 42.50 42.75 43.07 43.42 43.99 43.81 42.21 43.13 37.77 38.52 37.26 34.73 29.09 29.55 27.87 26.69 26.84 26.79 29.00 29.49 30.41 27.37 26.83 25.24 26.94 29.94 30.73 30.40 28.98 28.85 26.28 24.58 24.47 23.88 24.22 29.39 35.88 36.66 29.31 31.44 33.08 33.32 36.05 38.68
43.09 42.75 42.77 42.32 42.35 42.68 42.95 43.39 43.94 42.75 41.90 40.13 38.38 38.81 34.19 26.47 28.93 27.22 28.19 29.26 28.41 29.05 27.27 30.10 29.66 27.59 29.78 34.50 34.76 33.78 32.21 30.77 30.84 29.67 29.33 23.37 24.06 25.81 25.84 32.65 23.99 29.25 31.69 34.21 32.23 33.00 34.99
42.98 42.68 42.48 42.33 42.02 42.09 42.45 42.85 43.39 42.84 41.77 40.68 40.49 38.60 34.74 27.82 29.63 28.85 29.08 29.29 31.18 32.01 30.21 29.51 31.14 33.28 36.46 33.61 28.44 25.01 25.35 26.28 27.16 29.83 28.43 27.99 25.66 25.23 24.97 26.58 27.77 26.63 29.52 29.64 29.08 30.81 34.86
42.99 42.70 42.36 42.01 41.77 41.74 42.06 42.42 42.93 43.29 41.83 42.12 40.40 40.92 37.87 32.04 28.84 30.62 29.95 31.16 27.90 28.05 29.06 30.74 34.69 37.80 36.36 31.13 27.59 21.95 19.16 23.72 24.25 25.20 29.75 28.62 28.49 25.07 25.54 18.92 17.21 26.10 31.33 35.72 35.65 27.59 34.84
43.07 42.50 42.15 41.79 41.58 41.40 41.63 41.94 42.39 43.15 42.20 41.82 39.69 42.61 38.89 34.57 34.05 32.96 30.11 29.25 32.51 30.26 28.29 30.15 30.68 31.19 35.07 28.55 24.70 22.57 21.91 27.21 21.47 22.14 23.42 26.47 27.44 24.29 25.02 22.31 24.21 30.21 32.49 35.96 28.47 27.61 34.93
43.10 42.66 42.01 41.53 41.52 41.30 41.27 41.66 41.53 42.54 42.29 42.56 39.96 41.96 38.96 36.55 35.51 34.95 35.01 32.37 32.27 32.04 27.34 30.11 30.46 31.58 29.74 25.91 25.07 24.72 23.60 25.40 25.73 27.04 25.81 24.48 24.06 22.08 23.53 20.36 17.19 32.39 32.80 28.09 31.50 34.77 37.05
42.63 42.67 41.96 41.67 41.28 41.14 40.99 41.13 41.17 42.01 41.93 41.70 38.76 41.43 42.16 37.60 36.45 38.35 38.68 38.50 36.22 35.36 32.60 34.00 30.55 30.11 30.68 27.55 28.22 28.36 25.44 27.36 25.67 21.60 30.26 23.81 27.72 24.53 26.41 26.00 32.10 33.00 31.74 33.91 34.64 34.41 36.17
MSLP
1026.08 1025.85 1025.70 1025.40 1024.99 1024.65 1024.39 1024.03 1023.73 1023.37 1023.01 1022.61 1022.21 1021.74 1021.27 1020.89 1020.42 1019.86 1019.38 1019.07 1018.88 1018.56 1018.23 1018.05 1017.93 1017.81 1017.26 1015.47 1012.99 1013.53 1013.95 1013.73 1013.05 1013.18 1012.61 1011.91 1010.90 1010.28 1008.84 1008.07 1007.81 1007.09 1006.32 1006.80 1006.70 1006.41 1005.92
1026.12 1025.80 1025.61 1025.35 1025.16 1024.79 1024.31 1023.97 1023.59 1023.26 1022.90 1022.42 1021.95 1021.52 1021.08 1020.60 1020.05 1019.49 1019.00 1018.63 1018.48 1018.13 1017.68 1017.52 1017.46 1017.53 1016.73 1014.30 1012.75 1013.19 1013.33 1013.20 1012.77 1012.62 1012.16 1012.00 1010.85 1009.95 1008.97 1008.07 1007.41 1006.85 1006.61 1006.27 1006.25 1005.89 1005.79
1026.16 1025.95 1025.74 1025.44 1025.04 1024.72 1024.34 1023.95 1023.53 1023.16 1022.75 1022.26 1021.80 1021.40 1020.85 1020.28 1019.70 1019.21 1018.73 1018.32 1018.08 1017.69 1017.13 1016.95 1016.99 1016.91 1015.73 1013.15 1012.42 1012.58 1012.83 1012.67 1012.53 1012.37 1011.79 1011.45 1011.31 1010.65 1008.99 1008.19 1007.62 1007.00 1006.64 1006.18 1005.50 1005.35 1005.19
1026.35 1026.11 1025.68 1025.38 1025.06 1024.68 1024.31 1023.84 1023.39 1023.03 1022.63 1022.15 1021.63 1021.26 1020.66 1019.97 1019.36 1019.01 1018.44 1017.88 1017.54 1017.28 1016.93 1016.71 1016.74 1016.47 1014.05 1012.54 1012.51 1012.28 1012.05 1011.96 1012.17 1012.18 1011.98 1011.44 1011.33 1010.90 1009.55 1008.18 1007.13 1006.86 1006.35 1004.90 1004.66 1004.91 1004.99
1026.52 1026.16 1025.71 1025.35 1025.02 1024.63 1024.21 1023.76 1023.33 1022.91 1022.44 1022.04 1021.57 1021.11 1020.41 1019.74 1019.17 1018.80 1017.95 1017.31 1016.78 1016.79 1016.83 1016.67 1016.37 1015.97 1012.90 1012.63 1012.21 1011.49 1011.59 1011.36 1011.34 1011.83 1011.78 1011.71 1011.46 1010.25 1009.26 1008.09 1006.51 1005.77 1004.04 1003.96 1003.61 1004.12 1004.54
1026.50 1026.20 1025.75 1025.41 1025.12 1024.69 1024.24 1023.78 1023.35 1022.94 1022.42 1021.82 1021.40 1020.89 1020.27 1019.65 1019.25 1018.70 1017.77 1016.91 1016.55 1016.59 1016.37 1016.10 1016.11 1016.00 1012.68 1011.26 1011.12 1011.23 1011.07 1011.35 1011.07 1010.91 1011.19 1011.07 1010.25 1009.05 1008.48 1006.81 1003.87 1003.12 1003.36 1002.74 1002.81 1003.29 1004.01
1026.76 1026.31 1025.93 1025.60 1025.19 1024.76 1024.23 1023.77 1023.37 1022.83 1022.25 1021.66 1021.20 1020.67 1020.03 1019.60 1019.20 1018.67 1017.55 1015.86 1016.03 1015.55 1015.18 1014.77 1013.94 1013.47 1012.16 1011.38 1010.89 1010.33 1010.58 1010.84 1010.86 1010.40 1009.41 1009.45 1008.73 1006.81 1005.69 1005.21 1003.96 1003.16 1002.96 1002.62 1002.73 1002.79 1003.69
1026.81 1026.49 1026.10 1025.71 1025.25 1024.78 1024.30 1023.82 1023.20 1022.61 1022.02 1021.46 1020.91 1020.40 1019.81 1019.34 1018.93 1018.50 1017.60 1016.71 1017.62 1018.17 1015.78 1013.95 1013.08 1012.93 1012.62 1012.38 1010.86 1009.31 1010.41 1010.23 1009.81 1008.74 1008.27 1008.27 1006.71 1006.00 1006.07 1005.54 1004.89 1003.66 1002.73 1002.71 1003.07 1003.04 1003.52
1026.91 1026.60 1026.23 1025.84 1025.33 1024.83 1024.29 1023.68 1023.05 1022.44 1021.85 1021.21 1020.56 1019.97 1019.44 1018.95 1018.60 1018.30 1017.73 1017.73 1017.93 1017.92 1016.12 1012.76 1012.30 1011.89 1011.37 1011.67 1010.19 1009.20 1009.61 1009.05 1008.52 1007.65 1006.81 1006.20 1005.29 1005.72 1005.37 1005.17 1004.64 1003.84 1002.77 1002.52 1002.47 1002.97 1003.41
1027.08 1026.68 1026.36 1025.90 1025.43 1024.92 1024.30 1023.63 1022.96 1022.30 1021.71 1021.04 1020.36 1019.75 1019.12 1018.49 1018.69 1017.98 1017.44 1018.14 1017.93 1017.86 1015.37 1012.18 1011.27 1010.93 1010.77 1010.36 1009.24 1008.87 1008.87 1008.73 1007.59 1006.75 1006.11 1005.31 1005.00 1004.83 1004.83 1004.60 1004.36 1003.19 1003.31 1002.74 1002.68 1002.34 1001.69
1027.12 1026.74 1026.46 1025.98 1025.47 1024.87 1024.24 1023.56 1022.83 1022.05 1021.37 1020.79 1020.09 1019.49 1019.05 1018.56 1018.40 1017.70 1018.29 1018.13 1017.76 1017.45 1014.94 1012.52 1011.49 1011.29 1011.12 1010.32 1009.77 1008.11 1008.20 1008.05 1007.27 1006.27 1006.24 1004.56 1004.38 1004.05 1003.73 1003.20 1003.61 1002.94 1003.22 1003.44 1002.94 1002.15 1001.51
1027.20 1026.89 1026.52 1026.03 1025.45 1024.82 1024.13 1023.41 1022.63 1021.90 1021.09 1020.42 1019.96 1019.45 1019.01 1018.56 1018.26 1018.41 1018.28 1018.00 1017.47 1016.17 1014.15 1013.20 1012.79 1012.44 1011.54 1010.37 1009.98 1008.81 1008.30 1007.82 1007.45 1006.63 1005.75 1004.58 1003.63 1003.63 1002.98 1002.97 1002.88 1002.98 1003.26 1003.55 1003.32 1002.46 1001.13
1027.44 1027.06 1026.60 1026.12 1025.49 1024.79 1024.04 1023.23 1022.47 1021.67 1020.96 1020.26 1019.88 1019.71 1019.09 1019.00 1019.09 1018.55 1018.15 1017.23 1016.42 1015.75 1015.37 1014.98 1014.58 1013.92 1012.60 1010.78 1010.40 1009.68 1008.93 1008.63 1008.16 1007.56 1005.28 1004.27 1003.26 1002.56 1002.55 1002.37 1002.77 1002.73 1002.34 1002.08 1002.41 1001.84 999.95
1027.60 1027.25 1026.79 1026.32 1025.60 1024.86 1024.03 1023.11 1022.22 1021.38 1020.54 1020.07 1019.88 1019.77 1019.40 1018.99 1018.97 1018.53 1017.56 1016.47 1016.78 1017.72 1017.30 1017.14 1016.12 1014.39 1012.71 1012.34 1011.56 1010.78 1009.82 1010.33 1010.98 1010.38 1006.91 1004.39 1002.72 1002.05 1001.62 1000.94 1001.02 1001.35 1000.88 1000.05 999.91 999.32 998.94
1027.81 1027.42 1026.90 1026.37 1025.68 1024.91 1024.09 1023.16 1022.20 1021.19 1020.51 1019.93 1019.77 1019.27 1019.00 1018.82 1018.57 1018.04 1016.65 1017.43 1019.18 1019.22 1018.99 1017.72 1016.41 1015.00 1014.15 1013.93 1013.65 1012.11 1011.57 1012.44 1012.71 1012.73 1010.62 1006.40 1002.70 1001.16 1001.08 1000.49 1000.13 1000.37 999.90 999.17 998.81 998.58 998.29
1027.96 1027.54 1027.06 1026.47 1025.74 1025.00 1024.12 1023.23 1022.28 1021.27 1020.48 1019.99 1019.39 1019.20 1019.60 1019.69 1018.49 1016.97 1017.41 1019.04 1019.76 1019.96 1019.44 1018.52 1017.25 1016.94 1016.03 1015.58 1014.59 1013.67 1012.88 1013.74 1014.19 1014.10 1013.50 1009.67 1005.44 1001.20 1000.62 1000.08 999.44 999.36 999.26 998.48 998.52 998.06 997.62
1028.18 1027.76 1027.22 1026.62 1025.92 1025.11 1024.19 1023.23 1022.49 1021.51 1020.55 1020.26 1019.76 1019.47 1020.88 1020.05 1018.48 1018.38 1019.32 1020.14 1020.43 1020.26 1020.00 1019.30 1018.47 1017.69 1017.17 1016.64 1015.74 1014.68 1014.01 1014.18 1014.54 1014.17 1013.59 1011.21 1007.84 1002.11 1000.53 999.48 998.51 998.61 998.84 998.71 998.35 998.05 997.14
1028.39 1028.02 1027.40 1026.93 1026.28 1025.48 1024.50 1023.55 1022.69 1021.64 1020.89 1020.44 1020.17 1020.94 1021.97 1020.34 1019.42 1019.80 1020.44 1021.08 1021.29 1020.46 1019.99 1019.45 1019.06 1018.47 1017.87 1017.45 1016.09 1015.33 1014.88 1014.65 1015.03 1014.85 1013.81 1012.13 1009.62 1004.78 1000.61 999.51 998.56 998.47 998.00 998.42 998.21 998.32 997.87
1028.64 1028.26 1027.76 1027.31 1026.63 1025.89 1025.03 1024.17 1023.29 1022.46 1021.76 1021.19 1021.10 1021.72 1022.59 1021.29 1020.76 1020.88 1020.99 1021.12 1020.99 1020.56 1020.19 1019.83 1019.35 1019.11 1018.45 1017.58 1016.83 1015.49 1015.10 1014.88 1015.34 1015.06 1014.81 1013.68 1010.24 1005.73 1001.89 1000.22 999.19 998.29 998.22 998.64 998.56 998.76 998.49
1028.81 1028.57 1028.18 1027.69 1027.07 1026.43 1025.63 1024.79 1023.79 1023.02 1022.50 1021.68 1021.42 1022.41 1022.80 1021.84 1022.09 1021.82 1021.47 1021.33 1020.87 1020.55 1020.51 1020.32 1019.68 1019.16 1018.49 1017.77 1017.04 1016.16 1015.40 1015.12 1015.48 1015.62 1015.48 1014.54 1011.50 1008.04 1004.14 1000.91 999.81 999.05 999.04 999.13 999.25 999.25 998.96
1029.02 1028.82 1028.50 1028.03 1027.52 1027.00 1026.23 1025.60 1024.63 1023.66 1023.06 1022.13 1022.68 1023.98 1024.36 1023.30 1022.69 1022.11 1021.97 1021.64 1021.19 1020.56 1020.60 1019.90 1019.28 1019.09 1018.75 1018.36 1017.39 1016.09 1015.66 1015.33 1015.38 1015.61 1015.69 1015.16 1012.33 1009.35 1006.41 1003.83 1001.71 1000.07 999.91 1000.10 1000.04 1000.35 1000.10
1029.17 1029.03 1028.83 1028.44 1028.02 1027.54 1026.88 1026.43 1025.65 1024.57 1024.07 1023.68 1024.41 1024.40 1024.38 1023.74 1023.26 1022.52 1022.58 1022.17 1021.75 1021.12 1020.70 1019.78 1019.52 1019.04 1018.76 1018.41 1018.10 1016.90 1016.20 1015.98 1015.77 1015.49 1015.89 1015.42 1012.88 1010.36 1006.65 1004.11 1002.96 1003.01 1002.69 1001.81 1002.09 1002.49 1001.89
1029.42 1029.24 1029.06 1028.88 1028.61 1028.07 1027.65 1026.91 1026.55 1025.89 1024.71 1025.04 1025.62 1025.76 1025.02 1024.38 1023.41 1022.86 1023.20 1022.91 1022.15 1021.50 1020.78 1020.04 1019.94 1019.14 1017.95 1017.81 1017.71 1017.15 1016.91 1017.06 1016.95 1016.47 1016.28 1015.67 1014.05 1011.28 1007.20 1005.25 1004.83 1006.88 1008.70 1007.71 1007.85 1007.62 1006.48
1029.66 1029.48 1029.37 1029.17 1028.95 1028.60 1028.22 1027.67 1027.31 1027.03 1026.34 1026.03 1026.43 1025.94 1025.20 1024.44 1023.74 1023.68 1023.44 1023.09 1022.17 1021.36 1020.42 1019.46 1019.50 1018.51 1017.97 1017.08 1015.80 1015.64 1015.93 1016.15 1016.20 1016.00 1016.25 1015.68 1014.50 1012.57 1009.47 1007.57 1008.09 1012.08 1012.30 1011.71 1011.18 1010.93 1010.66
1029.79 1029.70 1029.62 1029.42 1029.25 1029.12 1028.63 1028.26 1027.99 1027.68 1027.37 1026.67 1026.70 1026.21 1025.98 1025.15 1024.58 1023.96 1023.69 1023.14 1022.01 1021.31 1020.34 1019.60 1018.66 1018.20 1016.88 1015.38 1014.83 1014.38 1014.87 1015.32 1015.67 1015.36 1015.48 1015.98 1015.10 1012.82 1010.82 1009.59 1012.17 1013.10 1013.96 1014.31 1013.57 1013.34 1013.05
1029.91 1029.90 1029.82 1029.72 1029.67 1029.40 1029.04 1028.70 1028.53 1028.15 1027.89 1027.15 1027.34 1027.25 1026.83 1026.22 1025.26 1025.36 1024.15 1023.41 1022.71 1021.64 1020.19 1018.79 1018.69 1017.72 1016.34 1015.08 1014.79 1014.60 1014.98 1015.04 1015.12 1015.41 1015.81 1015.77 1015.19 1014.16 1012.29 1012.86 1014.61 1016.44 1015.62 1015.01 1014.62 1014.73 1014.60
1029.96 1030.03 1029.99 1030.00 1029.96 1029.64 1029.42 1029.08 1028.88 1028.48 1028.24 1027.55 1027.69 1027.87 1027.27 1026.55 1025.73 1025.66 1024.80 1024.74 1023.94 1023.23 1021.74 1019.97 1019.29 1017.91 1017.28 1016.26 1015.81 1016.07 1016.19 1016.34 1016.24 1016.27 1016.03 1015.41 1014.96 1014.51 1014.15 1014.40 1016.48 1017.20 1016.16 1015.28 1015.43 1017.41 1015.95
1029.95 1029.96 1030.16 1030.23 1030.04 1029.88 1029.71 1029.45 1029.24 1028.79 1028.49 1027.72 1027.99 1028.20 1027.87 1027.11 1025.76 1025.87 1025.66 1025.24 1024.59 1024.03 1023.26 1022.52 1019.89 1019.42 1019.08 1018.34 1018.19 1018.21 1017.90 1017.77 1017.51 1017.84 1017.47 1016.69 1016.38 1016.46 1016.42 1016.59 1018.63 1019.05 1017.15 1017.57 1019.04 1017.89 1016.86
1029.96 1030.07 1030.33 1030.24 1030.16 1030.04 1029.93 1029.74 1029.52 1029.14 1028.85 1028.36 1027.91 1028.24 1028.42 1027.76 1026.44 1026.39 1026.14 1026.15 1025.97 1025.71 1025.21 1023.60 1023.36 1022.67 1022.44 1021.54 1020.60 1019.97 1019.36 1019.17 1018.72 1018.13 1018.47 1018.04 1018.96 1018.76 1018.67 1020.06 1021.54 1020.92 1020.18 1019.99 1019.37 1018.67 1017.93
Wind_Speed
12 13 12 12 13 14 15 16 16 16 17 18 19 19 19 19 19 19 19 19 18 16 15 12 10 5 8 7 9 7 2 2 2 1 7 9 14 17 20 16 17 22 20 19 17 18 23
10 12 12 14 14 14 15 16 17 17 18 19 20 21 21 20 21 21 21 20 20 19 18 12 8 7 8 11 6 4 3 7 12 11 11 9 9 13 15 20 20 13 21 17 22 22 23
13 13 12 13 15 16 16 17 17 18 19 20 21 22 22 22 22 21 22 22 20 20 16 7 8 8 9 13 2 6 8 8 5 10 14 13 12 14 10 13 21 18 16 20 21 23 21
12 12 14 14 15 16 17 17 17 19 19 20 21 22 21 22 22 23 23 22 20 18 7 1 9 7 9 3 8 11 9 10 5 7 11 12 7 13 19 15 9 21 17 19 23 23 24
12 13 14 15 16 17 17 17 17 18 19 20 21 21 21 21 21 22 23 21 17 4 2 9 7 6 8 2 6 4 9 10 5 4 5 5 8 11 13 16 16 18 20 26 22 27 20
13 13 14 16 17 17 17 17 18 19 19 20 20 21 21 21 20 21 23 17 2 6 7 5 1 6 8 5 9 8 11 11 11 6 6 11 11 12 15 19 22 25 27 22 24 19 29
12 14 16 17 17 17 18 18 18 19 20 21 21 21 20 20 19 19 14 4 3 7 4 8 14 16 19 11 16 4 2 7 14 13 16 16 14 20 28 28 27 23 19 23 18 15 25
15 15 17 17 17 18 18 18 19 20 21 20 20 20 20 18 17 14 7 5 5 5 13 18 16 16 18 9 10 3 5 9 11 18 19 9 21 23 22 24 23 22 19 23 12 19 20
14 15 17 17 18 18 18 19 20 21 21 21 20 19 19 17 15 5 4 6 5 9 8 7 4 5 1 7 10 12 9 5 12 17 17 21 16 20 21 19 22 23 20 20 19 18 19
14 16 17 18 18 19 20 20 21 21 21 22 20 18 15 17 4 5 2 4 11 5 7 1 3 3 3 15 8 6 8 12 12 16 18 18 20 13 24 25 25 25 19 16 13 20 16
14 17 17 18 19 19 20 21 22 22 22 21 19 16 11 8 6 5 8 12 5 5 7 6 3 7 19 13 13 1 6 10 19 19 10 16 13 20 22 25 27 21 21 16 14 15 17
15 16 17 18 18 20 21 22 22 23 22 21 14 12 7 1 2 8 11 7 5 6 7 6 8 20 21 14 14 10 14 9 13 15 20 22 11 20 19 18 21 16 17 22 13 7 10
15 16 17 18 19 20 22 23 24 24 22 18 13 5 9 4 9 14 7 5 6 6 15 11 17 24 21 18 17 9 13 7 6 9 19 21 19 15 20 21 17 22 19 14 13 10 12
15 16 17 18 20 21 23 25 24 24 22 14 6 1 10 4 9 7 4 6 5 12 13 19 18 24 18 15 14 14 12 6 10 20 14 14 16 23 17 18 17 25 23 14 24 19 17
15 16 17 18 20 22 24 26 25 25 21 12 3 3 13 14 12 4 6 6 6 10 14 17 22 14 16 16 13 13 9 7 9 13 9 9 17 21 21 17 22 25 23 21 19 9 14
15 16 18 19 21 23 25 26 26 25 21 10 2 2 17 19 14 3 7 7 3 12 15 16 16 11 16 15 14 15 9 8 8 12 14 7 9 13 19 20 21 25 25 20 9 17 12
15 16 17 19 22 24 26 27 26 25 21 6 3 4 15 17 6 9 9 5 5 12 12 10 16 16 14 16 18 16 6 5 12 16 17 10 5 11 19 19 19 16 18 14 10 7 11
14 16 17 19 21 24 27 28 28 25 21 7 7 6 13 10 11 7 9 6 9 13 12 8 9 12 12 17 16 11 8 7 15 15 13 8 6 8 17 20 20 19 20 24 10 11 5
14 16 17 19 21 24 25 27 28 24 17 1 5 7 9 9 9 9 8 12 7 15 12 10 7 9 14 13 12 12 14 13 14 16 7 13 5 6 15 14 12 20 17 22 12 5 7
13 16 17 19 21 23 25 26 28 25 19 2 3 3 5 7 9 12 10 12 15 11 10 12 10 11 17 18 9 10 18 7 16 7 11 11 7 8 3 12 17 19 18 16 17 8 10
13 15 17 18 19 21 24 26 28 25 20 2 5 4 3 6 8 12 9 15 17 17 11 13 10 15 19 10 19 12 11 14 7 5 10 8 7 13 15 11 7 19 21 17 19 16 13
12 14 16 17 18 19 22 24 27 26 11 6 4 2 0 6 8 11 14 15 18 19 14 14 16 23 21 16 15 17 15 11 7 5 13 8 6 15 6 10 13 16 16 21 5 1 12
11 13 15 16 17 18 19 22 22 25 11 5 3 3 4 6 7 9 11 15 19 18 10 18 18 19 21 14 11 15 14 13 15 16 13 7 8 9 6 9 19 15 16 15 14 17 12
9 12 13 15 16 17 17 19 20 17 13 6 4 2 2 7 9 10 14 14 18 19 20 18 21 16 13 21 13 10 12 13 12 11 9 8 10 4 6 6 7 6 16 9 17 16 17
8 10 11 13 14 14 16 16 17 17 10 8 7 3 2 4 10 12 18 17 16 19 21 17 23 19 17 8 5 5 4 6 4 5 6 8 6 5 4 11 9 18 16 9 6 9 16
6 8 9 11 12 13 14 14 14 14 8 4 8 4 2 3 10 9 13 17 12 19 19 25 24 15 20 7 4 7 7 7 5 2 4 6 9 5 7 9 9 15 20 10 5 7 16
6 6 8 8 9 12 12 12 13 15 10 4 6 7 1 2 6 7 11 11 13 13 14 17 23 18 19 12 11 8 10 8 7 7 10 6 5 15 11 7 7 24 18 4 1 7 14
6 7 6 6 8 10 10 11 11 14 14 3 5 6 1 2 5 4 6 12 13 12 12 16 9 15 11 13 9 7 7 9 4 12 7 11 7 7 7 10 12 23 12 9 6 7 10
6 6 5 5 6 8 9 9 9 13 13 6 3 6 2 2 5 4 7 9 8 9 7 9 6 11 7 6 7 5 6 6 15 10 19 11 9 10 11 7 3 11 8 7 6 4 11
Wind_Direction
31 32 24 16 17 12 3 6 2 360 356 353 350 347 345 340 338 339 337 332 327 321 313 297 284 268 268 251 263 112 298 312 45 206 257 253 231 220 228 228 220 220 225 214 222 217 210
28 25 21 20 14 4 7 1 1 359 355 352 349 346 342 339 338 339 333 327 324 319 312 296 257 204 250 261 87 165 190 274 273 262 252 236 248 238 253 240 224 210 227 209 217 214 219
29 29 24 13 13 9 3 360 359 356 354 351 348 344 340 338 338 335 327 318 316 319 314 289 211 208 250 264 261 217 249 269 274 249 248 233 248 259 227 238 234 230 216 219 217 218 215
34 22 26 19 14 9 1 360 358 354 352 350 346 340 337 337 335 329 319 311 312 313 316 179 174 193 257 204 298 275 251 248 236 231 247 256 228 250 265 242 218 220 227 212 209 213 213
29 24 15 15 12 6 0 359 356 352 350 347 343 336 337 337 333 324 315 317 312 282 112 144 174 252 265 130 250 304 228 251 223 218 231 257 209 232 204 229 214 202 218 218 216 206 204
27 20 15 15 9 3 1 358 354 349 346 345 340 336 336 335 328 322 318 318 21 195 193 213 277 241 236 304 330 280 271 252 251 224 191 204 201 213 226 210 212 205 218 209 215 187 207
22 18 15 12 7 3 0 357 352 348 346 342 338 334 334 330 324 318 317 288 291 183 267 283 295 277 288 326 295 236 241 233 234 230 236 205 210 217 217 219 233 225 207 221 210 179 204
24 16 15 10 7 4 359 354 351 347 344 340 336 333 329 325 320 308 290 30 49 340 291 280 264 254 269 284 293 252 180 211 201 217 214 191 231 237 231 230 234 236 216 213 179 202 202
24 18 15 9 7 2 357 354 351 346 341 339 337 333 326 324 318 270 332 49 10 318 278 306 220 247 2 245 282 298 192 222 234 232 229 236 245 227 234 224 224 219 222 212 207 188 204
22 18 15 9 6 1 357 354 349 344 340 340 337 329 330 323 264 341 16 342 324 251 277 160 174 116 292 323 254 275 229 274 244 248 241 248 260 230 213 219 210 209 213 217 206 185 193
22 21 13 10 6 1 356 352 348 344 343 341 339 336 347 0 325 340 341 325 304 227 287 45 33 6 332 314 322 263 323 262 254 249 232 241 232 210 218 211 201 221 196 205 217 204 208
24 21 13 10 6 2 357 352 349 345 345 343 348 345 343 204 281 360 325 305 224 232 248 18 319 341 331 324 322 282 313 269 268 270 253 256 234 216 213 212 197 201 193 213 211 205 230
26 20 15 11 7 3 358 352 350 348 348 347 353 26 22 350 335 320 306 223 259 250 4 6 334 330 314 309 314 320 315 341 337 268 232 219 232 218 216 210 194 206 198 177 191 197 215
27 20 16 12 9 4 359 354 350 349 352 355 343 345 16 17 331 303 245 242 257 8 358 332 329 312 302 8 329 335 319 325 53 342 272 229 204 206 197 227 184 198 193 179 180 202 191
28 21 18 14 10 5 1 357 352 351 355 1 148 11 19 348 347 286 259 50 22 356 332 327 319 334 332 339 334 316 348 15 33 358 321 302 234 179 206 212 194 186 211 193 207 209 196
29 25 20 16 12 7 3 360 359 354 1 359 102 79 15 344 324 1 64 70 20 352 330 329 335 328 318 341 329 324 305 73 9 351 338 297 273 190 196 205 209 178 199 201 235 185 197
32 27 24 20 14 9 4 1 3 2 358 359 55 73 3 334 356 57 62 58 344 343 351 333 334 322 338 344 319 319 326 73 25 343 330 305 257 194 191 200 188 180 198 218 215 208 201
37 31 28 24 19 12 8 4 3 8 355 24 62 65 351 334 52 37 53 17 318 345 339 335 312 338 346 329 322 313 321 325 25 349 318 357 306 265 187 191 196 195 196 198 185 182 209
41 35 31 26 23 17 11 7 7 10 13 356 68 87 40 2 45 32 30 16 3 341 344 349 324 331 323 324 318 329 330 325 5 339 325 359 283 247 205 174 234 194 200 198 196 147 182
45 39 34 30 27 22 18 12 8 10 11 360 71 70 13 31 40 30 11 4 356 6 333 338 312 301 328 328 311 302 300 345 347 44 356 328 284 328 241 182 184 204 194 208 206 207 183
51 44 39 35 32 26 23 18 12 11 8 340 21 62 354 13 23 28 11 4 355 351 339 311 322 325 329 308 311 297 318 322 330 71 4 357 284 337 302 274 254 194 203 193 200 213 215
54 48 43 39 36 31 28 25 20 14 354 58 95 38 293 42 15 27 19 6 357 352 339 331 325 324 316 297 297 289 303 314 315 325 356 341 301 321 273 178 119 61 8 208 197 339 222
59 52 47 41 37 36 31 28 30 20 5 54 53 102 287 30 17 10 6 351 347 347 344 330 332 315 309 318 292 286 287 283 278 289 308 305 321 333 164 148 136 55 5 56 63 33 357
63 56 50 45 40 37 35 32 30 37 25 57 43 311 328 38 20 7 353 356 347 351 336 346 348 327 321 311 287 236 237 245 257 268 245 270 302 278 294 276 113 84 21 24 63 40 31
74 63 56 50 43 36 38 34 30 36 26 49 34 17 13 37 5 5 0 357 347 358 359 349 347 345 328 310 344 135 135 155 134 49 199 227 278 303 309 79 122 34 2 334 347 51 17
90 76 65 57 48 41 38 34 27 27 40 24 43 16 4 328 23 353 342 8 357 354 346 350 1 346 354 6 4 48 43 347 53 115 136 201 243 290 31 59 44 347 333 319 251 59 359
118 97 74 65 54 47 37 34 24 22 29 16 45 3 287 11 40 337 8 354 350 348 340 348 346 357 359 19 35 23 50 8 25 23 349 2 359 33 46 78 66 348 341 298 337 3 324
131 116 94 78 63 50 39 36 24 24 15 359 57 21 339 351 25 325 336 342 342 360 357 332 326 5 1 22 8 21 12 8 51 37 11 26 20 21 28 58 34 343 5 39 321 304 344
123 130 127 91 74 56 43 33 20 26 20 355 28 25 335 270 335 336 306 307 312 338 325 346 11 357 354 345 5 355 18 15 31 45 20 46 33 48 24 65 67 352 10 345 341 344 16